Tracking 35275 objects as of 9-Sep-2026
HD Live streaming from Space Station
objects crossing your sky now

STARLINK-33967

Track STARLINK-33967 now!
10-day predictions
STARLINK-33967 is classified as:


NORAD ID: 64027
Int'l Code: 2025-102F
Launch date: May 16, 2025
Source: United States (US)
Launch site: AIR FORCE WESTERN TEST RANGE (AFWTR)
Your satellite tracking list
Your tracking list is empty




NASA's NSSDC Master Catalog

Two Line Element Set (TLE):
1 64027U 25102F   26251.58335648 -.00010135  00000-0 -34858-3 0  9990
2 64027  70.0003  12.5751 0003028 270.8276 188.1029 15.29582735  5626
Source of the keplerian elements: AFSPC